SL-8 R/B (25723 NORAD) Tracking and Keplerian Element Data

This shows tracking and keplerian element data for the satellite.

Feedback or suggestion? Click here.




ElementValue
Catalog25723
NameSL-8 R/B
Epoch Orbit22717
Epoch Day113.32388316
Epoch Year2021
RAAN71.3057
Inclination48.3924
Eccentricity0.0003192
Argument of Perigee305.2556
Mean Anonmoly55.2408
Mean Motion16.52289309
Decay Rate0.12614863
L11 25723U 99022C 21113.32388316 .12614863 12289-4 98116-4 0 9999
L22 25723 48.3924 71.3057 0003192 305.2556 55.2408 16.52289309227173

Live tracking and technical data element details for SL-8 R/B (NORAD 25723). SL-8 R/B can be tracked NOW for your location showing map with azimuth and elevation plus other details from your city location.

Track the satellite on the map from your city or location and see movement details for azimuth, elevation, latitude, longitude, range, height, and movement on the map or in text.







IsCatalogInMostPopularTable: catalog: 25723, numindb: 348
Update: records affected: 1



GetName: 25723 SL-8 R/B

Hit Count: updated at: Mon, 17 Jan 2022 01:51:04 GMT